Prescott, AZ

2:15 PM MST on December 11, 2019 (GMT -0700)
Love

Weather History for KPRC - May, 2019

Change the Weather History Date:

Sunday, May 12, 2019

  Actual Average Record
Temperature  
Mean Temperature 58 °F 60 °F  
Max Temperature 72 °F 75 °F 96 °F (1996)
Min Temperature 43 °F 46 °F 28 °F (1980)
Degree Days  
Heating Degree Days 7    
Month to date heating degree days 97  
Since 1 July heating degree days 4146  
Cooling Degree Days 0    
Month to date cooling degree days 0  
Year to date cooling degree days 1  
Growing Degree Days 7 (Base 50)    
Moisture  
Dew Point 43 °F    
Average Humidity 64    
Maximum Humidity 89    
Minimum Humidity 28    
Precipitation  
Precipitation 0.01 in 0.02 in 0.61 in (1957)
Month to date precipitation 0.80 0.18  
Year to date precipitation 6.32 4.26  
Sea Level Pressure  
Sea Level Pressure 29.89 in    
Wind  
Wind Speed 7 mph (SSW)    
Max Wind Speed 18 mph    
Max Gust Speed 25 mph    
Visibility 10 miles    
Events Rain , Thunderstorm    
T = Trace of Precipitation, MM = Missing Value Source: NWS Daily Summary

Daily Weather History Graph

Daily Weather History Graph

Search for Another Location

Airport or City:

Astronomy

May. 12, 2019 Rise Set
Actual Time 5:29 AM MST 7:23 PM MST
Civil Twilight 5:01 AM MST 7:50 PM MST
Nautical Twilight 4:28 AM MST 8:24 PM MST
Astronomical Twilight 3:52 AM MST 9:00 PM MST
Moon 12:50 PM MST (5/12) 1:49 AM MST (5/12)
Length of Visible Light 14h 49m
Length of Day
13h 53m
First Quarter, 59% of the Moon is Illuminated
May 12
First Quarter
May 18
Full
May 26
Last Quarter
Jun 3
New
Jun 9
First Quarter

Hourly Weather History & Observations

Time (MST) Temp. Windchill Dew Point Humidity Pressure Visibility Wind Dir Wind Speed Gust Speed Precip Events Conditions
12:53 AM 45.0 °F 40.6 °F 41.0 °F 86% 29.87 in 10.0 mi SSW 8.1 mph - N/A   Clear
1:53 AM 44.1 °F 39.5 °F 41.0 °F 89% 29.87 in 10.0 mi South 8.1 mph - N/A   Clear
2:53 AM 44.1 °F 40.8 °F 39.9 °F 85% 29.87 in 10.0 mi SSW 5.8 mph - N/A   Clear
3:53 AM 46.9 °F - 41.0 °F 80% 29.87 in 10.0 mi SSW 6.9 mph - N/A   Overcast
4:53 AM 45.0 °F - 39.9 °F 82% 29.90 in 10.0 mi Calm Calm - N/A   Clear
5:53 AM 44.1 °F 41.5 °F 41.0 °F 89% 29.92 in 10.0 mi North 4.6 mph - N/A   Clear
6:53 AM 48.9 °F - 45.0 °F 86% 29.91 in 10.0 mi SW 4.6 mph - N/A   Clear
7:53 AM 54.0 °F - 46.0 °F 75% 29.91 in 10.0 mi Variable 3.5 mph - N/A   Clear
8:53 AM 57.0 °F - 45.0 °F 64% 29.91 in 10.0 mi Variable 4.6 mph - N/A   Scattered Clouds
9:53 AM 62.1 °F - 43.0 °F 50% 29.90 in 10.0 mi North 5.8 mph - N/A   Scattered Clouds
10:53 AM 64.9 °F - 39.9 °F 40% 29.88 in 10.0 mi Calm Calm - N/A   Scattered Clouds
11:53 AM 68.0 °F - 39.9 °F 36% 29.87 in 10.0 mi Variable 4.6 mph - N/A   Scattered Clouds
12:53 PM 70.0 °F - 37.0 °F 30% 29.84 in 10.0 mi Calm Calm - N/A   Scattered Clouds
1:53 PM 70.0 °F - 35.1 °F 28% 29.84 in 10.0 mi ENE 8.1 mph - N/A   Mostly Cloudy
2:53 PM 63.0 °F - 45.0 °F 52% 29.88 in 9.0 mi North 15.0 mph 20.7 mph N/A Rain , Thunderstorm Light Thunderstorms and Rain
3:37 PM 59.0 °F - 45.0 °F 60% 30.01 in 10.0 mi SSW 11.5 mph - 0.01 in   Scattered Clouds
3:53 PM 62.1 °F - 46.9 °F 58% 29.86 in 10.0 mi SSW 12.7 mph - 0.01 in   Partly Cloudy
4:53 PM 64.0 °F - 46.9 °F 54% 29.85 in 10.0 mi SSW 13.8 mph - N/A   Mostly Cloudy
5:53 PM 62.1 °F - 46.9 °F 58% 29.85 in 10.0 mi Variable 5.8 mph - 0.00 in Rain Light Rain
6:53 PM 60.1 °F - 45.0 °F 57% 29.86 in 10.0 mi South 6.9 mph - 0.00 in   Clear
7:53 PM 57.0 °F - 45.0 °F 64% 29.88 in 10.0 mi South 6.9 mph - N/A   Scattered Clouds
8:53 PM 57.0 °F - 43.0 °F 59% 29.90 in 10.0 mi South 6.9 mph - N/A   Mostly Cloudy
9:53 PM 54.0 °F - 44.1 °F 69% 29.91 in 10.0 mi SSW 8.1 mph - N/A   Clear
10:53 PM 53.1 °F - 43.0 °F 69% 29.91 in 10.0 mi SSW 9.2 mph - N/A   Clear
11:53 PM 51.1 °F - 42.1 °F 71% 29.90 in 10.0 mi SSW 4.6 mph - N/A   Clear